Tracking 25964 objects as of 11-Aug-2022
HD Live streaming from Space Station
objects crossing your sky now

LEASAT 4

Track LEASAT 4 now!
LEASAT 4 is classified as:


NORAD ID: 15995
Int'l Code: 1985-076D
Perigee: 36,491.3 km
Apogee: 36,510.6 km
Inclination: 11.9 °
Period: 1,472.4 minutes
Semi major axis: 42871 km
RCS: 16.7803 m2 (large)
Launch date: August 27, 1985
Source: United States (US)
Launch site: AIR FORCE EASTERN TEST RANGE (AFETR)
aabbcc
Your satellite tracking list
Your tracking list is empty




NASA's NSSDC Master Catalog

Two Line Element Set (TLE):
1 15995U 85076D   22222.61867998 -.00000201  00000-0  00000-0 0  9993
2 15995  11.9102 337.7655 0002258 340.3556  27.4829  0.97800936104384
Source of the keplerian elements: AFSPC